Torna al catalogo

STARLINK-33595

AttivoComunicazioniVLEO
NORAD 62766·PAYLOAD·🇺🇸 United States

Lanciato Jan 21, 2025 da Vandenberg Space Force Base

Loading…

Prossimi Passaggi (prossime 24 ore)

TLE

AggiornatoSource: CelesTrak SupGP

Epoca: Sep 14, 2026, 22:56 UTC

1 62766C 25015J   26257.95604167 -.00074007  00000+0 -21861-2 0  2576
2 62766  53.1569 159.3102 0001221  80.0281 345.1228 15.34434115    11

Traccia STARLINK-33595 in tempo reale con AllMySat

Download on the App Store